Location: Saratoga Springs
(43.0831°N, 73.7850°W)
Time: 17:55:35
(UTC-04:00)

Vanguard 2 - Pass Details

Date: 24 April 2024
Orbit: 553 x 2914 km, 32.9° (Epoch: 19 May)

Event Time Altitude Azimuth Distance (km) Brightness Sun altitude
Rises 23:48:32 0° 205° (SSW) 4,836 - -32.0°
Reaches altitude 10° 23:51:59 10° 194° (SSW) 4,185 - -32.2°
Maximum altitude 00:01:36 28° 141° (SE) 3,673 - -32.7°
Exits shadow 00:07:05 23° 112° (ESE) 4,298 11.0 -32.9°
Drops below altitude 10° 00:14:16 10° 91° (E) 5,608 11.8 -33.2°
Sets 00:19:48 0° 82° (E) 6,746 12.3 -33.4°
